Time,TemperatureF,DewpointF,PressureIn,WindDirection,WindDirectionDegrees,WindSpeedMPH,WindSpeedGustMPH,Humidity,HourlyPrecipIn,Conditions,Clouds,dailyrainin,SoftwareType,DateUTC
2013-02-23 00:00:00,74.3,65.9,29.69,ESE,112,2.0,4.7,75,0.00,,---,0.00,VWS V13.01,2013-02-23 05:00:00,
2013-02-23 00:06:00,74.3,65.9,29.69,SE,135,0.0,2.0,75,0.00,,---,0.00,VWS V13.01,2013-02-23 05:06:00,
2013-02-23 00:10:00,74.3,66.2,29.69,SSE,158,13.4,13.4,76,0.00,,---,0.00,VWS V13.01,2013-02-23 05:10:00,
2013-02-23 00:21:00,74.3,66.6,29.69,SE,135,9.8,9.8,77,0.00,,---,0.00,VWS V13.01,2013-02-23 05:21:00,
2013-02-23 00:30:00,74.1,66.1,29.69,SSE,158,4.9,9.6,76,0.00,,---,0.00,VWS V13.01,2013-02-23 05:30:00,
2013-02-23 00:36:00,74.1,66.5,29.68,SSE,158,8.1,8.1,77,0.00,,---,0.00,VWS V13.01,2013-02-23 05:36:00,
2013-02-23 00:45:00,73.9,65.9,29.68,SE,135,7.8,7.8,76,0.00,,---,0.00,VWS V13.01,2013-02-23 05:45:00,
2013-02-23 00:55:00,73.9,65.5,29.68,SE,135,0.7,7.2,75,0.00,,---,0.00,VWS V13.01,2013-02-23 05:55:00,
2013-02-23 01:00:00,73.9,65.5,29.67,South,180,4.7,4.7,75,0.00,,---,0.00,VWS V13.01,2013-02-23 06:00:00,
2013-02-23 01:05:00,73.9,65.5,29.67,SE,135,7.2,7.2,75,0.00,,---,0.00,VWS V13.01,2013-02-23 06:05:00,
2013-02-23 01:11:00,74.1,66.1,29.67,ESE,112,3.8,7.2,76,0.00,,---,0.00,VWS V13.01,2013-02-23 06:11:00,
2013-02-23 01:21:00,74.1,66.5,29.67,ESE,112,2.0,5.4,77,0.00,,---,0.00,VWS V13.01,2013-02-23 06:21:00,
2013-02-23 01:30:00,74.1,66.8,29.67,SSE,158,0.0,5.8,78,0.00,,---,0.00,VWS V13.01,2013-02-23 06:30:00,
2013-02-23 01:36:00,74.3,67.0,29.67,SE,135,4.7,4.9,78,0.00,,---,0.00,VWS V13.01,2013-02-23 06:36:00,
2013-02-23 01:45:00,74.5,67.2,29.66,SSE,158,9.0,9.0,78,0.00,,---,0.00,VWS V13.01,2013-02-23 06:45:00,
2013-02-23 01:51:00,74.5,67.2,29.66,South,180,4.5,9.0,78,0.00,,---,0.00,VWS V13.01,2013-02-23 06:51:00,
2013-02-23 02:00:00,74.8,67.5,29.66,SSW,202,9.2,9.2,78,0.00,,---,0.00,VWS V13.01,2013-02-23 07:00:00,
2013-02-23 02:06:00,74.8,67.2,29.66,SE,135,8.1,9.2,77,0.00,,---,0.00,VWS V13.01,2013-02-23 07:06:00,
2013-02-23 02:15:00,74.8,66.8,29.66,SSE,158,8.7,9.0,76,0.00,,---,0.00,VWS V13.01,2013-02-23 07:15:00,
2013-02-23 02:26:00,74.8,66.8,29.65,SSE,158,8.5,10.7,76,0.00,,---,0.00,VWS V13.01,2013-02-23 07:26:00,
2013-02-23 02:36:00,74.8,66.8,29.65,SSW,202,8.1,9.0,76,0.00,,---,0.00,VWS V13.01,2013-02-23 07:36:00,
2013-02-23 02:45:00,74.7,66.6,29.65,SSE,158,13.0,13.0,76,0.00,,---,0.00,VWS V13.01,2013-02-23 07:45:00,
2013-02-23 02:51:00,74.5,66.4,29.65,ESE,112,5.1,13.0,76,0.00,,---,0.00,VWS V13.01,2013-02-23 07:51:00,
2013-02-23 03:00:00,74.5,66.4,29.64,SE,135,0.9,11.9,76,0.00,,---,0.00,VWS V13.01,2013-02-23 08:00:00,
2013-02-23 03:06:00,74.5,66.4,29.64,SSE,158,4.0,4.0,76,0.00,,---,0.00,VWS V13.01,2013-02-23 08:06:00,
2013-02-23 03:15:00,74.3,66.2,29.64,SE,135,6.3,6.7,76,0.00,,---,0.00,VWS V13.01,2013-02-23 08:15:00,
2013-02-23 03:25:00,74.3,66.2,29.64,SSE,158,4.9,10.7,76,0.00,,---,0.00,VWS V13.01,2013-02-23 08:25:00,
2013-02-23 03:35:00,74.3,66.2,29.64,ESE,112,2.5,4.7,76,0.00,,---,0.00,VWS V13.01,2013-02-23 08:35:00,
2013-02-23 03:46:00,74.3,66.2,29.64,SSE,158,9.6,9.6,76,0.00,,---,0.00,VWS V13.01,2013-02-23 08:46:00,
2013-02-23 03:55:00,74.3,66.2,29.63,SE,135,6.0,9.6,76,0.00,,---,0.00,VWS V13.01,2013-02-23 08:55:00,
2013-02-23 04:06:00,74.1,66.1,29.63,SSW,202,5.8,10.3,76,0.00,,---,0.00,VWS V13.01,2013-02-23 09:06:00,
2013-02-23 04:15:00,74.1,66.1,29.63,SE,135,0.0,9.6,76,0.00,,---,0.00,VWS V13.01,2013-02-23 09:15:00,
2013-02-23 04:20:00,74.3,66.6,29.63,South,180,0.0,1.3,77,0.00,,---,0.00,VWS V13.01,2013-02-23 09:20:00,
2013-02-23 04:31:00,74.3,66.6,29.63,South,180,11.2,11.2,77,0.00,,---,0.00,VWS V13.01,2013-02-23 09:31:00,
2013-02-23 04:41:00,74.3,66.2,29.63,ESE,112,0.0,6.9,76,0.00,,---,0.00,VWS V13.01,2013-02-23 09:41:00,
2013-02-23 04:50:00,74.3,66.2,29.63,SSE,158,10.1,10.1,76,0.00,,---,0.00,VWS V13.01,2013-02-23 09:50:00,
2013-02-23 04:55:00,74.3,66.2,29.63,SSE,158,6.3,10.1,76,0.00,,---,0.00,VWS V13.01,2013-02-23 09:55:00,
2013-02-23 05:00:00,74.3,66.2,29.64,SE,135,3.1,6.3,76,0.00,,---,0.00,VWS V13.01,2013-02-23 10:00:00,
2013-02-23 05:11:00,74.3,66.2,29.64,South,180,7.6,7.6,76,0.00,,---,0.00,VWS V13.01,2013-02-23 10:11:00,
2013-02-23 05:21:00,74.1,66.1,29.64,South,180,8.1,8.1,76,0.00,,---,0.00,VWS V13.01,2013-02-23 10:21:00,
2013-02-23 05:31:00,74.3,66.2,29.64,South,180,4.3,4.3,76,0.00,,---,0.00,VWS V13.01,2013-02-23 10:31:00,
2013-02-23 05:40:00,74.1,65.7,29.65,SE,135,2.2,2.2,75,0.00,,---,0.00,VWS V13.01,2013-02-23 10:40:00,
2013-02-23 05:50:00,74.3,66.2,29.65,SSW,202,13.6,13.6,76,0.00,,---,0.00,VWS V13.01,2013-02-23 10:50:00,
2013-02-23 05:56:00,74.3,65.9,29.64,South,180,6.5,13.6,75,0.00,,---,0.00,VWS V13.01,2013-02-23 10:56:00,
2013-02-23 06:06:00,74.3,65.9,29.64,SSW,202,10.5,10.5,75,0.00,,---,0.00,VWS V13.01,2013-02-23 11:06:00,
2013-02-23 06:16:00,74.3,65.9,29.65,SSE,158,11.0,11.0,75,0.00,,---,0.00,VWS V13.01,2013-02-23 11:16:00,
2013-02-23 06:25:00,74.3,65.9,29.65,SSW,202,6.5,7.4,75,0.00,,---,0.00,VWS V13.01,2013-02-23 11:25:00,
2013-02-23 06:35:00,74.1,65.7,29.65,SSE,158,2.5,4.9,75,0.00,,---,0.00,VWS V13.01,2013-02-23 11:35:00,
2013-02-23 06:41:00,74.1,65.7,29.65,South,180,12.5,12.5,75,0.00,,---,0.00,VWS V13.01,2013-02-23 11:41:00,
2013-02-23 06:46:00,74.1,65.7,29.64,SSW,202,3.6,12.5,75,0.00,,---,0.00,VWS V13.01,2013-02-23 11:46:00,
2013-02-23 06:55:00,74.1,65.7,29.65,SSE,158,5.8,10.7,75,0.00,,---,0.00,VWS V13.01,2013-02-23 11:55:00,
2013-02-23 07:06:00,74.1,65.7,29.65,SW,225,6.9,6.9,75,0.00,,---,0.00,VWS V13.01,2013-02-23 12:06:00,
2013-02-23 07:16:00,74.1,65.7,29.65,South,180,3.4,6.3,75,0.00,,---,0.00,VWS V13.01,2013-02-23 12:16:00,
2013-02-23 07:25:00,74.1,65.7,29.65,SSW,202,5.6,7.2,75,0.00,,---,0.00,VWS V13.01,2013-02-23 12:25:00,
2013-02-23 07:30:00,74.5,65.7,29.65,SSW,202,8.1,8.1,74,0.00,,---,0.00,VWS V13.01,2013-02-23 12:30:00,
2013-02-23 07:36:00,74.5,65.7,29.65,South,180,5.6,8.1,74,0.00,,---,0.00,VWS V13.01,2013-02-23 12:36:00,
2013-02-23 07:45:00,75.0,65.8,29.65,SSE,158,5.6,5.6,73,0.00,,---,0.00,VWS V13.01,2013-02-23 12:45:00,
2013-02-23 07:50:00,75.4,66.1,29.65,SSE,158,2.2,5.6,73,0.00,,---,0.00,VWS V13.01,2013-02-23 12:50:00,
2013-02-23 08:00:00,75.4,65.7,29.65,SE,135,7.8,7.8,72,0.00,,---,0.00,VWS V13.01,2013-02-23 13:00:00,
2013-02-23 08:11:00,76.3,66.6,29.66,SSW,202,9.6,9.6,72,0.00,,---,0.00,VWS V13.01,2013-02-23 13:11:00,
2013-02-23 08:20:00,76.8,66.7,29.66,SSW,202,5.4,5.6,71,0.00,,---,0.00,VWS V13.01,2013-02-23 13:20:00,
2013-02-23 08:25:00,77.2,66.7,29.67,SSW,202,5.6,5.6,70,0.00,,---,0.00,VWS V13.01,2013-02-23 13:25:00,
2013-02-23 08:35:00,77.2,66.7,29.67,South,180,4.9,4.9,70,0.00,,---,0.00,VWS V13.01,2013-02-23 13:35:00,
2013-02-23 08:40:00,77.5,66.6,29.67,SW,225,16.6,16.6,69,0.00,,---,0.00,VWS V13.01,2013-02-23 13:40:00,
2013-02-23 08:51:00,77.7,67.2,29.67,SSW,202,7.6,8.5,70,0.00,,---,0.00,VWS V13.01,2013-02-23 13:51:00,
2013-02-23 09:01:00,78.1,67.1,29.68,WSW,248,1.8,6.5,69,0.00,,---,0.00,VWS V13.01,2013-02-23 14:01:00,
2013-02-23 09:10:00,78.6,67.6,29.67,SSW,202,5.4,10.1,69,0.00,,---,0.00,VWS V13.01,2013-02-23 14:10:00,
2013-02-23 09:16:00,78.6,67.6,29.67,SE,135,1.6,11.6,69,0.00,,---,0.00,VWS V13.01,2013-02-23 14:16:00,
2013-02-23 09:26:00,78.6,67.2,29.67,SSW,202,5.8,5.8,68,0.00,,---,0.00,VWS V13.01,2013-02-23 14:26:00,
2013-02-23 09:36:00,79.2,67.7,29.68,South,180,2.5,9.4,68,0.00,,---,0.00,VWS V13.01,2013-02-23 14:36:00,
2013-02-23 09:45:00,79.7,68.2,29.68,SSW,202,11.4,11.4,68,0.00,,---,0.00,VWS V13.01,2013-02-23 14:45:00,
2013-02-23 09:51:00,80.2,68.3,29.68,SSE,158,9.8,11.4,67,0.00,,---,0.00,VWS V13.01,2013-02-23 14:51:00,
2013-02-23 10:00:00,80.6,68.6,29.68,South,180,6.9,6.9,67,0.00,,---,0.00,VWS V13.01,2013-02-23 15:00:00,
2013-02-23 10:11:00,80.8,69.2,29.68,SSE,158,3.1,6.7,68,0.00,,---,0.00,VWS V13.01,2013-02-23 15:11:00,
2013-02-23 10:21:00,81.7,69.2,29.68,SSW,202,7.6,12.1,66,0.00,,---,0.00,VWS V13.01,2013-02-23 15:21:00,
2013-02-23 10:30:00,82.2,69.7,29.67,SSE,158,13.0,16.8,66,0.00,,---,0.00,VWS V13.01,2013-02-23 15:30:00,
2013-02-23 10:36:00,82.2,69.7,29.67,West,270,2.9,13.0,66,0.00,,---,0.00,VWS V13.01,2013-02-23 15:36:00,
2013-02-23 10:46:00,82.6,69.6,29.67,South,180,15.0,15.0,65,0.00,,---,0.00,VWS V13.01,2013-02-23 15:46:00,
2013-02-23 10:56:00,82.2,69.3,29.67,South,180,13.2,13.2,65,0.00,,---,0.00,VWS V13.01,2013-02-23 15:56:00,
2013-02-23 11:05:00,82.2,69.3,29.67,SW,225,11.4,11.4,65,0.00,,---,0.00,VWS V13.01,2013-02-23 16:05:00,
2013-02-23 11:11:00,82.8,69.8,29.67,SE,135,8.3,11.4,65,0.00,,---,0.00,VWS V13.01,2013-02-23 16:11:00,
2013-02-23 11:20:00,82.6,69.6,29.66,SE,135,11.0,16.1,65,0.00,,---,0.00,VWS V13.01,2013-02-23 16:20:00,
2013-02-23 11:25:00,82.6,69.6,29.66,SE,135,11.0,11.0,65,0.00,,---,0.00,VWS V13.01,2013-02-23 16:25:00,
2013-02-23 11:31:00,83.1,69.7,29.66,SE,135,0.7,11.0,64,0.00,,---,0.00,VWS V13.01,2013-02-23 16:31:00,
2013-02-23 11:40:00,83.1,70.1,29.65,ESE,112,6.3,13.0,65,0.00,,---,0.00,VWS V13.01,2013-02-23 16:40:00,
2013-02-23 11:46:00,83.1,70.1,29.65,South,180,14.1,14.1,65,0.00,,---,0.00,VWS V13.01,2013-02-23 16:46:00,
2013-02-23 11:55:00,83.1,69.7,29.65,SSE,158,1.3,9.2,64,0.00,,---,0.00,VWS V13.01,2013-02-23 16:55:00,
2013-02-23 12:01:00,83.1,70.1,29.65,SSE,158,11.6,15.4,65,0.00,,---,0.00,VWS V13.01,2013-02-23 17:01:00,
2013-02-23 12:10:00,83.1,69.7,29.64,ENE,68,6.3,18.1,64,0.00,,---,0.00,VWS V13.01,2013-02-23 17:10:00,
2013-02-23 12:16:00,82.9,70.0,29.64,South,180,10.7,10.7,65,0.00,,---,0.00,VWS V13.01,2013-02-23 17:16:00,
2013-02-23 12:21:00,82.9,69.5,29.64,East,90,7.2,10.7,64,0.00,,---,0.00,VWS V13.01,2013-02-23 17:21:00,
2013-02-23 12:31:00,83.3,69.9,29.63,East,90,9.0,9.2,64,0.00,,---,0.00,VWS V13.01,2013-02-23 17:31:00,
2013-02-23 12:40:00,83.5,70.0,29.63,SE,135,15.9,15.9,64,0.00,,---,0.00,VWS V13.01,2013-02-23 17:40:00,
2013-02-23 12:45:00,83.5,70.0,29.63,SE,135,15.9,15.9,64,0.00,,---,0.00,VWS V13.01,2013-02-23 17:45:00,
2013-02-23 12:50:00,83.5,70.0,29.63,SSE,158,9.8,15.9,64,0.00,,---,0.00,VWS V13.01,2013-02-23 17:50:00,
2013-02-23 13:01:00,83.8,70.4,29.62,SSW,202,13.6,18.1,64,0.00,,---,0.00,VWS V13.01,2013-02-23 18:01:00,
2013-02-23 13:11:00,83.8,70.4,29.62,SSW,202,10.5,14.5,64,0.00,,---,0.00,VWS V13.01,2013-02-23 18:11:00,
2013-02-23 13:20:00,83.8,70.4,29.62,WSW,248,5.4,14.3,64,0.00,,---,0.00,VWS V13.01,2013-02-23 18:20:00,
2013-02-23 13:30:00,83.8,70.4,29.61,SSW,202,8.1,8.1,64,0.00,,---,0.00,VWS V13.01,2013-02-23 18:30:00,
2013-02-23 13:41:00,83.3,69.9,29.61,ESE,112,2.0,15.0,64,0.00,,---,0.00,VWS V13.01,2013-02-23 18:41:00,
2013-02-23 13:50:00,82.2,69.7,29.60,SSE,158,12.8,12.8,66,0.00,,---,0.00,VWS V13.01,2013-02-23 18:50:00,
2013-02-23 14:01:00,81.7,70.1,29.60,WSW,248,4.5,10.5,68,0.00,,---,0.00,VWS V13.01,2013-02-23 19:01:00,
2013-02-23 14:11:00,82.2,70.2,29.60,SSE,158,11.9,11.9,67,0.00,,---,0.00,VWS V13.01,2013-02-23 19:11:00,
2013-02-23 14:21:00,82.2,70.2,29.60,WSW,248,8.3,11.6,67,0.00,,---,0.00,VWS V13.01,2013-02-23 19:21:00,
2013-02-23 14:30:00,82.6,70.1,29.59,WSW,248,6.7,11.2,66,0.00,,---,0.00,VWS V13.01,2013-02-23 19:30:00,
2013-02-23 14:35:00,82.6,70.1,29.59,SE,135,10.7,10.7,66,0.00,,---,0.00,VWS V13.01,2013-02-23 19:35:00,
2013-02-23 14:45:00,81.3,69.8,29.58,SE,135,6.0,10.3,68,0.00,,---,0.00,VWS V13.01,2013-02-23 19:45:00,
2013-02-23 14:50:00,81.0,69.4,29.58,SE,135,8.5,11.0,68,0.00,,---,0.00,VWS V13.01,2013-02-23 19:50:00,
2013-02-23 15:01:00,81.3,69.8,29.58,WSW,248,10.7,10.7,68,0.00,,---,0.00,VWS V13.01,2013-02-23 20:01:00,
2013-02-23 15:10:00,82.6,71.0,29.58,WSW,248,13.9,13.9,68,0.00,,---,0.00,VWS V13.01,2013-02-23 20:10:00,
2013-02-23 15:20:00,83.1,70.6,29.58,WSW,248,7.4,13.0,66,0.00,,---,0.00,VWS V13.01,2013-02-23 20:20:00,
2013-02-23 15:25:00,82.9,70.0,29.58,South,180,16.6,16.6,65,0.00,,---,0.00,VWS V13.01,2013-02-23 20:25:00,
2013-02-23 15:30:00,82.4,69.9,29.58,WSW,248,9.2,16.6,66,0.00,,---,0.00,VWS V13.01,2013-02-23 20:30:00,
2013-02-23 15:36:00,82.9,70.4,29.58,WSW,248,7.4,9.2,66,0.00,,---,0.00,VWS V13.01,2013-02-23 20:36:00,
2013-02-23 15:45:00,82.6,70.1,29.57,WSW,248,0.7,6.7,66,0.00,,---,0.00,VWS V13.01,2013-02-23 20:45:00,
2013-02-23 15:50:00,82.6,70.1,29.57,WSW,248,4.7,4.7,66,0.00,,---,0.00,VWS V13.01,2013-02-23 20:50:00,
2013-02-23 16:01:00,82.2,69.7,29.57,WSW,248,6.7,8.5,66,0.00,,---,0.00,VWS V13.01,2013-02-23 21:01:00,
2013-02-23 16:11:00,81.3,69.8,29.57,WSW,248,12.3,23.5,68,0.00,,---,0.00,VWS V13.01,2013-02-23 21:11:00,
2013-02-23 16:20:00,81.9,70.3,29.57,WSW,248,7.4,13.0,68,0.00,,---,0.00,VWS V13.01,2013-02-23 21:20:00,
2013-02-23 16:25:00,82.0,70.4,29.57,WSW,248,7.4,7.4,68,0.00,,---,0.00,VWS V13.01,2013-02-23 21:25:00,
2013-02-23 16:35:00,81.3,69.8,29.57,WSW,248,9.4,11.0,68,0.00,,---,0.00,VWS V13.01,2013-02-23 21:35:00,
2013-02-23 16:41:00,81.3,69.8,29.57,WSW,248,9.4,9.4,68,0.00,,---,0.00,VWS V13.01,2013-02-23 21:41:00,
2013-02-23 16:51:00,81.0,69.4,29.57,South,180,5.8,11.4,68,0.00,,---,0.00,VWS V13.01,2013-02-23 21:51:00,
2013-02-23 17:01:00,80.4,69.8,29.57,East,90,5.4,6.0,70,0.00,,---,0.00,VWS V13.01,2013-02-23 22:01:00,
2013-02-23 17:10:00,79.5,69.3,29.57,South,180,0.0,7.6,71,0.00,,---,0.00,VWS V13.01,2013-02-23 22:10:00,
2013-02-23 17:15:00,79.0,68.8,29.57,SSW,202,8.3,8.3,71,0.00,,---,0.00,VWS V13.01,2013-02-23 22:15:00,
2013-02-23 17:21:00,79.0,68.8,29.57,SSE,158,15.0,15.0,71,0.00,,---,0.00,VWS V13.01,2013-02-23 22:21:00,
2013-02-23 17:31:00,78.6,68.8,29.56,East,90,2.9,2.9,72,0.00,,---,0.00,VWS V13.01,2013-02-23 22:31:00,
2013-02-23 17:36:00,79.0,69.2,29.56,South,180,9.0,13.0,72,0.00,,---,0.00,VWS V13.01,2013-02-23 22:36:00,
2013-02-23 17:41:00,78.6,68.8,29.57,South,180,11.4,11.4,72,0.00,,---,0.00,VWS V13.01,2013-02-23 22:41:00,
2013-02-23 17:46:00,78.6,68.8,29.56,South,180,5.8,11.4,72,0.00,,---,0.00,VWS V13.01,2013-02-23 22:46:00,
2013-02-23 17:55:00,78.6,69.2,29.56,SSE,158,8.3,9.2,73,0.00,,---,0.00,VWS V13.01,2013-02-23 22:55:00,
2013-02-23 18:00:00,78.6,69.2,29.56,SSW,202,9.6,9.6,73,0.00,,---,0.00,VWS V13.01,2013-02-23 23:00:00,
2013-02-23 18:06:00,78.1,68.7,29.56,SSE,158,6.0,9.6,73,0.00,,---,0.00,VWS V13.01,2013-02-23 23:06:00,
2013-02-23 18:16:00,78.1,69.1,29.57,South,180,11.2,11.2,74,0.00,,---,0.00,VWS V13.01,2013-02-23 23:16:00,
2013-02-23 18:26:00,77.7,68.8,29.57,South,180,12.5,12.5,74,0.00,,---,0.00,VWS V13.01,2013-02-23 23:26:00,
2013-02-23 18:35:00,77.5,69.0,29.58,South,180,3.6,8.7,75,0.00,,---,0.00,VWS V13.01,2013-02-23 23:35:00,
2013-02-23 18:45:00,77.4,68.8,29.58,South,180,10.7,10.7,75,0.00,,---,0.00,VWS V13.01,2013-02-23 23:45:00,
2013-02-23 18:55:00,77.4,69.2,29.58,South,180,7.8,17.7,76,0.00,,---,0.00,VWS V13.01,2013-02-23 23:55:00,
2013-02-23 19:01:00,77.2,69.0,29.58,South,180,8.3,9.2,76,0.00,,---,0.00,VWS V13.01,2013-02-24 00:01:00,
2013-02-23 19:11:00,77.2,69.0,29.58,South,180,8.5,8.5,76,0.00,,---,0.00,VWS V13.01,2013-02-24 00:11:00,
2013-02-23 19:20:00,77.2,69.0,29.59,South,180,17.2,17.2,76,0.00,,---,0.00,VWS V13.01,2013-02-24 00:20:00,
2013-02-23 19:30:00,77.2,69.0,29.59,South,180,8.1,8.1,76,0.00,,---,0.00,VWS V13.01,2013-02-24 00:30:00,
2013-02-23 19:40:00,77.2,69.0,29.60,SSW,202,12.3,12.3,76,0.00,,---,0.00,VWS V13.01,2013-02-24 00:40:00,
2013-02-23 19:46:00,77.2,69.0,29.59,SSW,202,12.3,12.3,76,0.00,,---,0.00,VWS V13.01,2013-02-24 00:46:00,
2013-02-23 19:55:00,77.2,69.0,29.59,SSW,202,8.3,8.3,76,0.00,,---,0.00,VWS V13.01,2013-02-24 00:55:00,
2013-02-23 20:00:00,77.4,69.2,29.59,SSW,202,8.3,8.3,76,0.00,,---,0.00,VWS V13.01,2013-02-24 01:00:00,
2013-02-23 20:10:00,77.2,69.4,29.60,South,180,4.7,7.8,77,0.00,,---,0.00,VWS V13.01,2013-02-24 01:10:00,
2013-02-23 20:16:00,77.2,69.4,29.60,South,180,11.0,11.0,77,0.00,,---,0.00,VWS V13.01,2013-02-24 01:16:00,
2013-02-23 20:25:00,77.2,69.4,29.60,SSW,202,8.3,11.0,77,0.00,,---,0.00,VWS V13.01,2013-02-24 01:25:00,
2013-02-23 20:31:00,77.2,69.4,29.61,SSW,202,5.6,8.3,77,0.00,,---,0.00,VWS V13.01,2013-02-24 01:31:00,
2013-02-23 20:41:00,77.0,68.1,29.61,WNW,292,0.7,1.3,74,0.00,,---,0.00,VWS V13.01,2013-02-24 01:41:00,
2013-02-23 20:50:00,76.6,66.9,29.61,North,0,5.6,5.6,72,0.00,,---,0.00,VWS V13.01,2013-02-24 01:50:00,
2013-02-23 20:56:00,76.5,66.8,29.61,NNE,22,0.0,5.6,72,0.00,,---,0.00,VWS V13.01,2013-02-24 01:56:00,
2013-02-23 21:05:00,76.1,66.8,29.62,NNE,22,0.0,0.0,73,0.00,,---,0.00,VWS V13.01,2013-02-24 02:05:00,
2013-02-23 21:10:00,76.1,66.8,29.61,NE,45,0.0,0.0,73,0.00,,---,0.00,VWS V13.01,2013-02-24 02:10:00,
2013-02-23 21:21:00,76.1,66.8,29.62,SSE,158,0.0,0.0,73,0.00,,---,0.00,VWS V13.01,2013-02-24 02:21:00,
2013-02-23 21:31:00,76.1,66.8,29.62,WSW,248,0.0,0.0,73,0.00,,---,0.00,VWS V13.01,2013-02-24 02:31:00,
2013-02-23 21:40:00,76.3,66.6,29.62,WSW,248,0.0,0.0,72,0.00,,---,0.00,VWS V13.01,2013-02-24 02:40:00,
2013-02-23 21:50:00,76.3,67.0,29.62,SSW,202,0.0,0.0,73,0.00,,---,0.00,VWS V13.01,2013-02-24 02:50:00,
2013-02-23 21:55:00,76.3,67.0,29.62,SSW,202,1.1,1.1,73,0.00,,---,0.00,VWS V13.01,2013-02-24 02:55:00,
2013-02-23 22:05:00,76.3,67.0,29.62,SSW,202,0.0,0.7,73,0.00,,---,0.00,VWS V13.01,2013-02-24 03:05:00,
2013-02-23 22:15:00,76.3,67.0,29.62,SSW,202,0.0,0.0,73,0.00,,---,0.00,VWS V13.01,2013-02-24 03:15:00,
2013-02-23 22:26:00,76.3,67.4,29.62,SW,225,0.0,0.0,74,0.00,,---,0.00,VWS V13.01,2013-02-24 03:26:00,
2013-02-23 22:36:00,76.3,67.4,29.62,SW,225,0.0,0.0,74,0.00,,---,0.00,VWS V13.01,2013-02-24 03:36:00,
2013-02-23 22:45:00,76.3,67.8,29.62,SW,225,3.4,3.4,75,0.00,,---,0.00,VWS V13.01,2013-02-24 03:45:00,
2013-02-23 22:50:00,76.3,67.8,29.62,SW,225,0.0,3.4,75,0.00,,---,0.00,VWS V13.01,2013-02-24 03:50:00,
2013-02-23 23:01:00,76.1,68.0,29.62,SW,225,1.1,3.6,76,0.00,,---,0.00,VWS V13.01,2013-02-24 04:01:00,
2013-02-23 23:10:00,76.1,68.0,29.62,WSW,248,0.0,0.0,76,0.00,,---,0.00,VWS V13.01,2013-02-24 04:10:00,
2013-02-23 23:15:00,76.1,68.0,29.62,WSW,248,0.0,0.0,76,0.00,,---,0.00,VWS V13.01,2013-02-24 04:15:00,
2013-02-23 23:26:00,75.9,67.8,29.62,WSW,248,0.0,9.2,76,0.00,,---,0.00,VWS V13.01,2013-02-24 04:26:00,
2013-02-23 23:31:00,75.9,67.8,29.62,WSW,248,0.0,0.0,76,0.00,,---,0.00,VWS V13.01,2013-02-24 04:31:00,
2013-02-23 23:40:00,75.7,67.6,29.62,WSW,248,0.0,0.0,76,0.00,,---,0.00,VWS V13.01,2013-02-24 04:40:00,
2013-02-23 23:46:00,75.7,67.6,29.62,WSW,248,0.0,12.3,76,0.00,,---,0.00,VWS V13.01,2013-02-24 04:46:00,
2013-02-23 23:56:00,75.6,67.5,29.62,WSW,248,0.0,1.8,76,0.00,,---,0.00,VWS V13.01,2013-02-24 04:56:00,